This is the latest recevied weather packets stored in our database for station/object VE3TEJ. If no packets are shown the sender has not sent any weather packets the latest 10 day(s).
| Time | Temp. | Humidity | Pressure | Rain* | Wind** | Luminosity | Snow |
|---|---|---|---|---|---|---|---|
| 1777926848 | 21.67° C | 44% | 1000.8 hPa | 0 mm | - | - | - |
| 1777926547 | 21.67° C | 45% | 1000.7 hPa | 0 mm | - | - | - |
| 1777926249 | 21.67° C | 45% | 1001 hPa | 0 mm | - | - | - |
| 1777925948 | 21.67° C | 45% | 1000.8 hPa | 0 mm | - | - | - |
| 1777925649 | 21.67° C | 46% | 1000.9 hPa | 0 mm | - | - | - |
| 1777925349 | 21.67° C | 46% | 1001 hPa | 0 mm | - | - | - |
| 1777925048 | 21.67° C | 47% | 1000.9 hPa | 0 mm | - | - | - |
| 1777924748 | 21.11° C | 47% | 1001.1 hPa | 0 mm | - | - | - |
| 1777924447 | 21.11° C | 47% | 1001.2 hPa | 0 mm | - | - | - |
| 1777924149 | 21.11° C | 48% | 1001.1 hPa | 0 mm | - | - | - |
| 1777923848 | 21.11° C | 47% | 1001.1 hPa | 0 mm | - | - | - |
| 1777923548 | 21.11° C | 47% | 1001.3 hPa | 0 mm | - | - | - |
| 1777923247 | 21.11° C | 47% | 1001.4 hPa | 0 mm | - | - | - |
| 1777922947 | 21.11° C | 47% | 1001.3 hPa | 0 mm | - | - | - |
| 1777922649 | 21.11° C | 48% | 1001.5 hPa | 0 mm | - | - | - |
| 1777922348 | 20.56° C | 49% | 1001.6 hPa | 0 mm | - | - | - |
| 1777922048 | 20.56° C | 49% | 1001.7 hPa | 0 mm | - | - | - |
| 1777921747 | 20.56° C | 49% | 1001.6 hPa | 0 mm | - | - | - |
| 1777921447 | 20.56° C | 50% | 1001.5 hPa | 0 mm | - | - | - |
| 1777921149 | 20° C | 50% | 1001.7 hPa | 0 mm | - | - | - |
| 1777920848 | 20.56° C | 49% | 1001.9 hPa | 0 mm | - | - | - |
| 1777920548 | 20.56° C | 49% | 1002 hPa | 0 mm | - | - | - |
| 1777920247 | 20.56° C | 50% | 1002.1 hPa | 0 mm | - | - | - |
| 1777919949 | 20.56° C | 50% | 1001.9 hPa | 0 mm | - | - | - |
| 1777919648 | 21.11° C | 48% | 1002.1 hPa | 0 mm | - | - | - |
* Rain latest hour (hover to see other rain measurements)
** Current wind speed in m/s (hover to see current wind gust speed)